Location: Bathurst
(33.4193°S, 149.5775°E)
Time: 01:02:26
(UTC+10:00)

Explorer 11/Cluster Stage 4 - All Passes

Search period start: 23 June 2021 00:00
Search period end: 03 July 2021 00:00
Orbit: 467 x 1257 km, 28.8° (Epoch: 21 June)

Date Brightness Start Highest point End Pass type
(mag) Time Alt. Az. Time Alt. Az. Time Alt. Az.
23 Jun - 13:11:20 10° N 13:13:10 13° NNE 13:14:56 10° NE daylight
23 Jun - 14:57:37 10° NW 15:00:55 31° N 15:04:15 10° ENE daylight
23 Jun - 16:45:18 10° WNW 16:48:48 41° N 16:52:40 10° ENE daylight
23 Jun - 18:33:21 10° WNW 18:36:46 26° NNW 18:40:42 10° NE visible
23 Jun - 20:23:36 10° NW 20:24:51 11° NNW 20:26:09 10° N visible
24 Jun - 12:59:40 10° NNW 13:02:10 16° NNE 13:04:32 10° ENE daylight
24 Jun - 14:46:34 10° WNW 14:49:59 34° N 14:53:20 10° ENE daylight
24 Jun - 16:34:26 10° WNW 16:37:51 39° N 16:41:34 10° ENE daylight
24 Jun - 18:22:40 10° WNW 18:25:47 22° NNW 18:29:17 10° NE visible
25 Jun - 12:48:08 10° NNW 12:51:11 19° NNE 12:53:58 10° ENE daylight
25 Jun - 14:35:31 10° WNW 14:39:03 37° N 14:42:26 10° ENE daylight
25 Jun - 16:23:32 10° WNW 16:26:55 36° N 16:30:28 10° ENE daylight
25 Jun - 18:12:03 10° WNW 18:14:48 19° NNW 18:17:47 10° NNE visible
26 Jun - 12:36:41 10° NW 12:40:12 23° NNE 12:43:19 10° ENE daylight
26 Jun - 14:24:26 10° WNW 14:28:06 39° N 14:31:32 10° ENE daylight
26 Jun - 16:12:39 10° WNW 16:15:59 33° N 16:19:24 10° ENE daylight
26 Jun - 18:01:32 10° NW 18:03:48 15° NNW 18:06:13 10° NNE visible
27 Jun - 10:39:32 10° N 10:41:08 11° NNE 10:42:40 10° NE daylight
27 Jun - 12:25:17 10° NW 12:29:13 27° NNE 12:32:37 10° ENE daylight
27 Jun - 14:13:21 10° WNW 14:17:10 41° N 14:20:39 10° ENE daylight
27 Jun - 16:01:45 10° WNW 16:05:02 30° NNW 16:08:19 10° NE daylight
27 Jun - 17:51:12 10° NW 17:52:48 12° NNW 17:54:27 10° N visible
28 Jun - 10:27:08 10° NNW 10:30:05 15° NNE 10:32:46 10° NE daylight
28 Jun - 12:13:55 10° NW 12:18:13 31° NNE 12:21:53 10° ENE daylight
28 Jun - 14:02:14 10° WNW 14:06:14 42° N 14:09:46 10° ENE daylight
28 Jun - 15:50:51 10° WNW 15:54:05 28° NNW 15:57:14 10° NE daylight
29 Jun - 10:15:08 10° NNW 10:19:02 18° NNE 10:22:26 10° ENE daylight
29 Jun - 12:02:33 10° NW 12:07:14 36° N 12:11:07 10° ENE daylight
29 Jun - 13:51:07 10° WNW 13:55:17 43° N 13:58:54 10° ENE daylight
29 Jun - 15:39:55 10° WNW 15:43:07 25° NNW 15:46:09 10° NE daylight
30 Jun - 10:03:19 10° NNW 10:07:57 22° NNE 10:11:55 10° ENE daylight
30 Jun - 11:51:11 10° WNW 11:56:13 40° N 12:00:20 10° ENE daylight
30 Jun - 13:39:58 10° WNW 13:44:19 44° N 13:48:01 10° ENE daylight
30 Jun - 15:29:01 10° WNW 15:32:07 23° NNW 15:35:03 10° NE daylight
01 Jul - 08:07:17 10° NNE 08:08:25 10° NNE 08:09:32 10° NE daylight
01 Jul - 09:51:36 10° NW 09:56:51 26° NNE 10:01:16 10° ENE daylight
01 Jul - 11:39:50 10° WNW 11:45:11 44° N 11:49:31 10° ENE daylight
01 Jul - 13:28:49 10° WNW 13:33:20 43° N 13:37:08 10° ENE daylight
01 Jul - 15:18:05 10° WNW 15:21:07 20° NNW 15:23:55 10° NNE daylight
02 Jul - 07:53:59 10° N 07:57:14 13° NNE 08:00:17 10° NE daylight
02 Jul - 09:39:56 10° NW 09:45:44 31° NNE 09:50:34 10° ENE daylight
02 Jul - 11:28:29 10° WNW 11:34:09 48° N 11:38:42 10° ENE daylight
02 Jul - 13:17:37 10° W 13:22:20 43° N 13:26:14 10° ENE daylight
02 Jul - 15:07:10 10° WNW 15:10:05 18° NNW 15:12:46 10° NNE daylight
